Location: Presov
(49.0000°N, 21.2500°E)
Time: 06:45:13
(UTC+02:00)

Transit 2A Rocket - Pass Details

Date: 22 April 2021
Orbit: 594 x 909 km, 66.7° (Epoch: 07 May)

Event Time Altitude Azimuth Distance (km) Brightness Sun altitude
Rises 18:14:27 0° 286° (WNW) 2,859 9.8 12.4°
Reaches altitude 10° 18:18:36 10° 325° (NW) 1,938 7.8 11.8°
Maximum altitude 18:19:40 11° 339° (NNW) 1,887 7.5 11.6°
Drops below altitude 10° 18:20:45 10° 354° (N) 1,939 7.3 11.4°
Sets 18:24:55 0° 33° (NNE) 2,864 7.7 10.7°
